SL-12 DEB, 41677

Orbit data source: Space-Track

SL-12 DEB, 41677 is space debris in HEO originally from a launch on Fri, 26 Oct 2007 UTC launched from the Tyuratam Missile And Space Complex (TTMTR). Debris objects in space refer to the collection of defunct objects orbiting the Earth. Examples of debris include non-operational satellites, rocket bodies, and fragments generated from explosions, collisions, or faulty payload assembly.

Loading next visibility...
Identifier
41677, 2007-052J
Orbit
HEO
Country
Flag of CISCIS
Related business
Manufacturer
RKKE
Mission
Spacecraft
Bus & Motor
Unknown
Mass
Unknown
Launch date (UTC)
2007-10-26 (18 years ago)
Launch vehicle
Unknown
Launch site
Tyuratam Missile And Space Complex (TTMTR)
Object type
Payload
Rocket body
Debris
Shape & HBR
Unknown shape, 0.7 m
Radar Cross Section
Medium (>0.1 m² and <1 m²)

Expand to show TLE details & history
Last TLE update: 2 days ago

TLE from 2 days ago
0 SL-12 DEB
1 41677U 07052J   26035.17978854  .00000304  00000-0  11039-2 0  9997
2 41677  64.9750 251.8845 5582270 232.9901  61.9496  4.38741132181879
Epoch: 2026-02-04T04:18Z
TLE epoch observation values (Epoch: 2026-02-04T04:18:53.729Z)
Latitude
-0.00001°
Longitude
52.8157°
Altitude
9,975.944 km
Speed
4.844 km/s
True Right ascension
16h 47m 33s
True Declination
0° 00' 00"
Sunlit
Object was in daylight at epoch
Visualization orbit readout
Latitude
Unknown
Longitude
Unknown
Altitude
Unknown
Speed
Unknown
Apparent Right ascension
Unknown
Apparent Declination
Unknown
Sunlit
N/A
Visualization observer readout
Local Sidereal Time
04:06:02
Azimuth
Unknown
Elevation
Unknown
Doppler factor
Unknown
Orbital elements
Apogee altitude
18,180.036 km
Perigee altitude
584.351 km
Semi-major axis
15,760.331 km
Eccentricity
0.55823
Inclination
64.975°
RAAN
251.8845°
Arg. of periapsis
232.9901°
True anomaly
127.07798°
Mean anomaly
61.9496°
Eccentric anomaly
93.86106°
Mean motion
1.09697 °/min
Orbital period
328.18 mins
BSTAR
0.0011039
Loading maneuver chart data...
Computing Atmospheric mass density...
Loading historical data...
Loading historical data...
Loading historical data...
Loading historical data...
Loading historical data...
Loading historical data...
Loading historical data...

Documentation

Showing up to 5 results
|